Volver al catálogo

FENGYUN 1C DEB

ActivoPO
NORAD 30971·DEBRIS·🇨🇳 China

Lanzado May 10, 1999 desde Taiyuan Satellite Launch Center

Loading…

Próximos Pases (próximas 24 horas)

TLE

ActualizadoSource: Space-Track

Época: Sep 14, 2026, 17:16 UTC

1 30971U 99025BBM 26257.72011376  .00002230  00000-0  28819-3 0  9992
2 30971  99.1803 342.7338 0159493  58.0535  91.0788 14.73671139 37789

Sigue FENGYUN 1C DEB en tiempo real con AllMySat

Download on the App Store